Regional Weather Roundup
Issued by NWS

Home | Current Version | Previous Version | Text Only | Print | Product List | Glossary Off
Versions: 1 2 3 4 5 6 7 8 9 10 11 12 13 14 15 16 17 18 19 20 21 22 23 24 25 26 27 28 29 30 31 32 33 34 35 36 37 38 39 40 41 42 43 44 45 46 47 48 49 50

000
ASUS43 KLOT 300912
RWRIL

ILLINOIS REGIONAL WEATHER ROUNDUP
NATIONAL WEATHER SERVICE CHICAGO/ROMEOVILLE IL
400 AM CDT SAT MAY 30 2015

NOTE: "FAIR" INDICATES FEW OR NO CLOUDS BELOW 12,000 FEET WITH NO
SIGNIFICANT WEATHER AND/OR OBSTRUCTIONS TO VISIBILITY.

* THESE STATIONS ARE NOT UNDER NWS QUALITY CONTROL. THEY ALSO MAY NOT
  REPORT WEATHER SUCH AS PRECIPITATION OR FOG.

ILZ001-002-007-009-015-016-024-301000-
NORTHWEST ILLINOIS

CITY           SKY/WX    TMP DP  RH WIND       PRES   REMARKS
MOLINE         CLOUDY    67  63  87 S6        29.92F
STERLING*      CLOUDY    66  63  88 SW3       29.94F
SAVANNA*       CLOUDY    68  62  81 S8        29.92F
$$

ILZ003-004-008-010-011-017-018-301000-
NORTH CENTRAL ILLINOIS

CITY           SKY/WX    TMP DP  RH WIND       PRES   REMARKS
ROCKFORD       LGT RAIN  67  64  90 SW8       29.95R
FREEPORT*      CLOUDY    65  62  88 SW8       29.95R
ROCHELLE*      DRIZZLE   66  64  93 SW9       29.95S
DE KALB*       CLOUDY    66  63  89 W9        29.95F
PERU*          LGT RAIN  68  65  91 W7        29.94F
$$

ILZ005-006-012>014-019>023-301000-
NORTHEAST ILLINOIS

CITY           SKY/WX    TMP DP  RH WIND       PRES   REMARKS
CHICAGO-OHARE  CLOUDY    69  65  86 W6        29.93S
CHICAGO-MIDWAY CLOUDY    71  66  84 SW9       29.93S
AURORA         CLOUDY    70  64  81 SW8       29.95S
LANSING*       LGT RAIN  68  64  86 SW6       29.95S
JOLIET*        LGT RAIN  71  67  90 SW5       29.95S
WAUKEGAN       CLOUDY    65  63  93 SW6       29.92S
DUPAGE AIRPORT CLOUDY    69  65  86 SW9       29.94S
KANKAKEE*      HVY RAIN  69  67  94 SW14      29.98R
WHEELING       CLOUDY    69  65  86 W5        29.94S
MORRIS*        LGT RAIN  69  66  92 W8        29.93F
ROMEOVILLE*    LGT RAIN  69  64  86 W8        29.95S
NORTHERLY ISL    N/A     71  63  75 W3          N/A
$$

LMZ740>746-301000-
SOUTHERN LAKE MICHIGAN

STATION/POSITION SKY/WX   TEMP    WIND        PRES    VSBY  WAVE
                          AIR SEA DIR/SP/G                  HT/PER
                          (F)     (DEG/KT/KT) (MB)    (MI)  (FT/S)
SOUTHERN BUOY              48 38  290/  4/  4 1013.8R         1
HARRISON CRIB              71     220/ 14/ 16   N/A
BURNHAM HARBOR             71     210/  4/  7   N/A
CALUMET HARBOR             69     220/  4/  8   N/A
BURNS HARBOR               69     210/ 12/ 14 1014.6S
MICHIGAN CITY              69     190/ 14/ 15   N/A
MICHIGAN CITY 6N           61 56  210/  6/  8   N/A           1
ST. JOSEPH                 62 58  220/  8/  8   N/A           1/ 3
$$

ILZ025>027-034>036-040-047-049-050-058-095>099-301000-
WEST-CENTRAL ILLINOIS

CITY           SKY/WX    TMP DP  RH WIND       PRES   REMARKS
QUINCY         LGT RAIN  66  64  93 S3        29.95F
GALESBURG*     LGT RAIN  64  63  95 CALM      29.95F
MACOMB*        LGT RAIN  65  64  97 CALM      29.97F
JACKSONVILLE*  DRIZZLE   67  66  95 CALM      29.96F
PITTSFIELD*    DRIZZLE   66  64  93 CALM      29.97S
$$

ILZ028>032-037-038-041>044-048-051>054-059>061-301000-
CENTRAL ILLINOIS

CITY           SKY/WX    TMP DP  RH WIND       PRES   REMARKS
PONTIAC        RAIN      69  68  96 W5        29.97F
BLOOMINGTON    RAIN      68  67  96 W3        29.98S FOG
DECATUR        CLOUDY    68  64  87 N3        29.97S
PEORIA         LGT RAIN  69  64  84 W5        29.96S
LACON*         CLOUDY    67  65  94 CALM      29.94S
LINCOLN*       CLOUDY    67  66  94 CALM      29.96R
SPRINGFIELD    LGT RAIN  67  65  93 CALM      29.97S FOG
TAYLORVILLE    TSTM      64  64 100 N3        29.97F
$$

ILZ033-039-045-046-055>057-062-063-301000-
EAST-CENTRAL ILLINOIS

CITY           SKY/WX    TMP DP  RH WIND       PRES   REMARKS
CHAMPAIGN      CLOUDY    68  65  90 W6        29.98F
DANVILLE*      MOCLDY    67  64  89 SW5       29.96F
RANTOUL*       CLOUDY    69  67  93 SW5       29.98S
MATTOON        CLOUDY    67  65  93 CALM      29.98R
PARIS*         MOCLDY    67  64  91 CALM      30.00S
$$

ILZ079-100>102-301000-
SOUTHWEST ILLINOIS

CITY           SKY/WX    TMP DP  RH WIND       PRES   REMARKS
ALTON          LGT RAIN  69  69 100 CALM      29.96F
BELLEVILLE     CLOUDY    68  68 100 W5        29.94S
CAHOKIA*       CLOUDY    69  67  93 E3        29.94F
SPARTA*        CLOUDY    68  67  97 SE7       29.95F
$$

ILZ064>066-069>071-074>076-080>082-084>086-088>090-092>094-301000-
SOUTH-CENTRAL ILLINOIS

CITY           SKY/WX    TMP DP  RH WIND       PRES   REMARKS
CARBONDALE     MOCLDY    68  67  96 SE5       29.95F
CAIRO*         MOCLDY    74  68  81 S9        29.97S
EFFINGHAM*     CLOUDY    67  64  89 E5        29.98F
MARION         MOCLDY    73  70  88 SE7       29.97F
MT. VERNON     CLOUDY    70  64  83 SE6       29.97F
CENTRALIA*     MOCLDY    68  66  93 SE8       29.95F
SALEM*         CLOUDY    71  67  88 SE7       29.96F
METROPOLIS*    CLOUDY    72  71  98 CALM      29.98F
$$

ILZ067-068-072-073-078-083-087-091-301000-
SOUTHEAST ILLINOIS

CITY           SKY/WX    TMP DP  RH WIND       PRES   REMARKS
LAWRENCEVILLE  CLEAR     67  65  93 S7        30.00S
FLORA*         CLEAR     67  66  97 SE6       29.98F
FAIRFIELD*     MOCLDY    70  66  88 SE5       29.97F
HARRISBURG*    CLOUDY    73  70  89 S7        29.99F
ROBINSON*      PTCLDY    66  64  94 CALM      30.00F
CARMI*         PTCLDY    70  64  83 SE8       29.99S
$$

ABBREVIATIONS USED IN REMARKS
   TC - TEMPERATURE IN CELSIUS
  WCI - WIND CHILL INDEX
   HX - HEAT INDEX
  VSB - VISIBILITY
$$



USA.gov is the U.S. government's official web portal to all federal, state and local government web resources and services.